Tracking 27112 objects as of 26-Mar-2023
HD Live streaming from Space Station
objects crossing your sky now

STARLINK-4650

Track STARLINK-4650 now!
10-day predictions
STARLINK-4650 is classified as:


NORAD ID: 53611
Int'l Code: 2022-104Z
Perigee: 546.0 km
Apogee: 547.8 km
Inclination: 53.2 °
Period: 95.4 minutes
Semi major axis: 6917 km
RCS: Unknown
Launch date: August 28, 2022
Source: United States (US)
Launch site: AIR FORCE EASTERN TEST RANGE (AFETR)
Your satellite tracking list
Your tracking list is empty




NASA's NSSDC Master Catalog

Two Line Element Set (TLE):
1 53611U 22104Z   23085.12162429  .00026611  00000-0  16834-2 0  9990
2 53611  53.2177  40.7241 0001296 107.5190 252.5944 15.08848324 32089
Source of the keplerian elements: AFSPC